Showing default

BOTSAT-1, 63216

Orbit data source: Space-Track

BOTSAT-1, 63216 is a Batswana payload satellite in SSO that was launched on Sat, 15 Mar 2025 UTC via an FALCON 9 launch vehicle from the Air Force Western Test Range (AFWTR). Payload-class satellites include a variety of spacecraft equipped with specific instruments for various scientific and technological missions. These include communications satellites like Starlink; space stations such as the ISS; scientific satellites like the Hubble; Earth observation satellites from companies like Planet Labs, Umbra, and HawkEye 360; GPS; miniature CubeSats for education and research; and military/defense satellites.

Loading next visibility...
Identifier
63216, 2025-052G
Orbit
SSO
Country
Flag of BWBW / BWA
Related business
Manufacturer
Endurosat
Mission
Operational Amateur Technology
Bus & Motor
CUBESAT 3U, Unknown motor
Mass
5 kg wet, 5 kg dry
Launch date (UTC)
2025-03-15 (8 months ago)
Launch vehicle
FALCON 9
Launch site
Air Force Western Test Range (AFWTR)
Object type
Payload
Rocket body
Debris
Shape & HBR
Box + 4 Pan, 14.5 m
Radar Cross Section
0.035 m², Medium (>0.1 m² and < 1m²)

Expand to show TLE details & history
Last TLE update: 9 hours ago

TLE from 9 hours ago
0 BOTSAT-1
1 63216U 25052G   25318.66244407  .00012597  00000-0  54838-3 0  9999
2 63216  97.4089 209.9878 0003477 123.1445 237.0125 15.22359207 37265
Epoch: 2025-11-14T15:53Z
TLE epoch observation values (Epoch: 2025-11-14T15:53:55.167Z)
Latitude
-0.00007°
Longitude
-82.49477°
Altitude
503.123 km
Speed
7.612 km/s
True Right ascension
13h 59m 57s
True Declination
0° 00' 00"
Sunlit
Object was in daylight at epoch
Visualization orbit readout
Latitude
Unknown
Longitude
Unknown
Altitude
Unknown
Speed
Unknown
Apparent Right ascension
Unknown
Apparent Declination
Unknown
Sunlit
N/A
Visualization observer readout
Local Sidereal Time
21:34:56
Azimuth
Unknown
Elevation
Unknown
Doppler factor
Unknown
Orbital elements
Apogee altitude
498.08 km
Perigee altitude
493.299 km
Semi-major axis
6,873.826 km
Eccentricity
0.00035
Inclination
97.4089°
RAAN
209.9878°
Arg. of periapsis
123.1445°
True anomaly
236.97909°
Mean anomaly
237.0125°
Eccentric anomaly
236.99579°
Mean motion
3.80842 °/min
Orbital period
94.53 mins
BSTAR
0.00054838
Loading maneuver chart data...
Computing Atmospheric mass density...
Loading historical data...
Loading historical data...
Loading historical data...
Loading historical data...
Loading historical data...
Loading historical data...
Loading historical data...

Documentation

Showing up to 5 results
|